Probability
0 0 0 1 1 1 0 0 0 0 0 0 0 0 0 0 0 0 0 0 1 2 5 10 11 8 5 5 5 6 6 6 7 7 5 2 0 0 0 0 0 0 0 0 0 0 1 1 1
0 0 0 1 1 0 0 0 0 0 0 0 0 0 0 0 0 0 0 1 2 3 6 10 10 7 5 5 5 6 6 6 7 7 6 3 1 0 0 0 0 0 0 0 1 1 2 2 2
0 0 0 1 0 0 0 0 0 0 0 0 0 0 0 0 0 0 0 1 3 5 8 11 9 6 5 6 6 6 6 6 6 7 7 5 2 0 0 0 1 1 1 1 1 2 3 3 3
0 0 1 1 0 0 0 0 0 0 0 0 0 0 0 0 0 0 1 2 3 5 9 11 10 7 6 6 6 6 6 6 7 8 8 7 3 1 1 1 2 2 2 1 1 2 3 3 2
0 1 1 1 0 0 0 0 0 0 0 0 0 0 0 0 0 0 2 3 4 6 7 9 9 8 7 7 7 7 7 7 8 9 9 8 5 2 1 2 3 2 1 0 0 1 2 2 2
1 1 1 0 0 0 0 0 0 0 0 0 0 0 0 0 0 2 3 4 4 6 6 6 7 9 8 8 8 8 8 8 9 9 9 9 7 3 2 2 3 1 0 0 0 0 1 2 2
0 0 0 0 0 0 0 0 0 0 0 0 0 0 0 0 1 3 4 3 3 5 5 5 6 8 9 8 8 8 8 9 9 8 8 8 6 4 2 1 1 0 0 0 0 0 1 1 1
0 0 0 0 0 0 0 0 0 0 0 0 0 0 0 0 1 3 3 2 2 3 4 4 5 6 6 6 6 6 7 8 8 6 5 5 3 2 2 1 0 0 1 1 0 0 0 0 0
0 0 0 0 0 0 0 0 0 0 0 0 0 0 0 1 2 2 1 2 2 3 3 3 4 4 4 4 5 5 6 6 4 3 2 1 1 1 1 0 0 0 1 2 1 0 0 0 0
0 0 0 0 0 0 0 0 0 0 0 0 0 0 1 3 4 2 0 1 3 4 3 3 3 3 3 4 4 5 4 2 1 0 0 0 0 0 0 0 0 0 1 2 2 1 0 0 0
0 0 0 0 0 0 0 0 0 0 0 0 0 0 1 3 5 3 1 1 3 4 4 4 3 3 3 3 4 4 3 1 0 0 0 0 0 0 0 0 0 0 1 2 2 1 0 0 0
0 0 0 0 0 0 0 0 0 0 0 0 1 1 1 2 5 5 4 2 3 4 5 5 4 3 3 3 3 3 2 1 0 0 0 0 0 0 0 0 0 0 0 1 1 0 0 0 0
0 0 0 0 0 0 0 0 0 0 0 0 1 2 1 1 4 5 5 4 3 4 4 5 4 4 4 3 3 2 1 0 0 0 0 0 0 0 0 0 0 0 0 0 0 0 0 0 0
0 0 0 0 0 0 0 0 0 0 0 0 1 1 1 1 1 2 3 4 4 3 3 4 5 5 4 3 2 1 0 0 0 0 0 0 0 0 0 0 0 0 0 0 0 0 0 0 0
0 0 0 0 0 0 0 0 0 0 0 0 0 0 0 0 0 0 2 3 4 3 3 4 5 6 5 3 2 1 0 0 0 0 0 0 0 0 0 0 0 0 0 0 0 0 0 0 0
0 0 0 0 0 0 0 0 0 0 0 0 0 0 0 0 0 1 2 3 4 4 3 3 4 6 5 3 2 2 1 0 0 0 0 0 0 0 0 0 0 0 0 0 0 0 0 0 0
0 0 0 0 0 0 0 0 0 0 0 0 0 0 0 0 1 2 3 3 4 5 4 4 4 5 5 3 3 3 2 1 0 0 0 0 0 0 0 0 0 0 0 0 0 0 0 0 0
0 0 0 0 0 0 0 0 0 0 0 0 0 0 0 0 1 2 3 3 4 5 5 5 4 4 4 3 3 3 3 2 1 0 0 0 0 0 0 0 0 0 0 0 0 0 0 0 0
0 0 0 0 0 0 0 0 0 0 0 0 0 0 0 0 0 1 2 3 3 4 4 4 4 3 3 3 3 3 3 3 1 0 0 0 0 0 0 0 0 0 0 0 0 0 0 0 0
0 0 0 0 0 0 0 0 0 0 0 0 0 0 0 0 0 0 1 3 3 3 3 3 4 3 2 2 3 3 3 3 2 1 1 0 0 0 0 0 0 0 0 0 0 0 0 0 0
0 0 0 0 0 0 0 0 0 0 0 0 0 0 0 0 0 0 1 2 3 3 3 3 3 3 1 1 1 2 3 3 3 2 1 0 0 0 0 0 0 0 0 0 0 0 0 0 0
0 0 0 0 0 0 0 0 0 0 0 0 0 0 0 0 0 0 0 1 2 3 3 3 3 3 2 1 0 1 2 3 3 3 2 1 0 0 0 0 0 0 0 0 0 0 0 0 0
0 0 0 0 0 0 0 0 0 0 0 0 0 0 0 0 0 0 0 0 1 2 3 3 3 3 3 1 0 0 1 1 2 2 2 1 0 0 0 0 0 0 0 0 0 0 0 0 0
0 0 0 0 0 0 0 0 0 0 0 0 0 0 0 0 0 0 0 0 0 1 2 2 2 3 3 2 0 0 0 0 1 1 1 0 0 0 0 0 0 0 0 0 0 0 0 0 0
0 0 0 0 0 0 0 0 0 0 0 0 0 0 0 0 0 0 0 0 0 0 1 1 1 1 2 1 0 0 0 0 0 0 0 0 0 0 0 0 0 0 0 0 0 0 0 0 0
0 0 0 0 0 0 0 0 0 0 0 0 0 0 0 0 0 0 0 0 0 0 0 0 0 0 0 0 0 0 0 0 0 0 0 0 0 0 0 0 0 0 0 0 0 0 0 0 0
0 0 0 0 0 0 0 0 0 0 0 0 0 0 0 0 0 0 0 0 0 0 0 0 0 0 0 0 0 0 0 0 0 0 0 0 0 0 0 0 0 0 0 0 0 0 0 0 0
0 0 0 0 0 0 0 0 0 0 0 0 0 0 0 0 0 0 0 0 0 0 0 0 0 0 0 0 0 0 0 0 0 0 0 0 0 0 0 0 0 0 0 0 0 0 0 0 0
0 0 0 0 0 0 0 0 0 0 0 0 0 0 0 0 0 0 0 0 0 0 0 0 0 0 0 0 0 0 0 0 0 0 0 0 0 0 0 0 0 0 0 0 0 0 0 0 0
0 0 0 0 0 0 0 0 0 0 0 0 0 0 0 0 0 0 0 0 0 0 0 0 0 0 0 0 0 0 0 0 0 0 0 0 0 0 0 0 0 0 0 0 0 0 0 0 0
Wind_Speed
5 3 2 4 6 3 3 4 2 1 2 1 1 3 5 4 4 2 1 1 2 1 0 0 4 7 8 9 9 9 9 9 9 9 9 10 11 12 12 12 12 13 14 14 15 15 15 15 15
1 2 4 5 5 2 5 4 3 3 3 3 3 3 3 1 1 1 1 2 2 2 1 1 5 7 8 9 9 9 9 9 9 9 9 10 11 11 12 12 12 12 13 13 14 14 14 14 14
1 3 4 4 4 6 5 3 4 1 1 2 3 2 2 1 1 1 1 1 3 3 2 2 6 7 8 9 9 9 9 9 9 9 9 10 10 11 12 12 11 11 11 12 13 13 14 13 13
3 4 5 3 4 4 4 2 2 2 1 2 3 2 1 2 1 0 1 3 4 4 3 3 7 7 8 9 9 9 9 9 9 10 10 10 10 11 11 11 11 11 11 11 12 13 13 13 13
4 4 3 1 4 3 2 2 2 2 2 1 3 3 0 2 2 3 4 4 5 4 4 4 7 8 8 9 9 9 9 9 10 10 10 11 11 11 10 10 10 10 10 11 11 12 12 12 12
4 4 3 4 5 2 2 2 2 2 1 1 3 3 1 1 2 3 4 4 5 5 4 4 6 8 8 9 9 9 9 9 9 9 10 10 11 11 10 9 9 10 10 10 11 11 12 12 11
5 4 4 4 3 3 3 2 3 3 2 2 3 4 1 0 2 4 5 5 5 5 5 4 4 5 7 9 9 9 9 9 9 9 10 10 10 10 10 9 9 9 9 10 10 10 11 12 11
4 4 3 3 4 4 2 2 1 3 2 1 3 4 3 2 4 5 5 5 5 5 5 5 5 5 5 5 9 9 10 11 11 11 11 11 10 9 9 8 8 8 9 9 10 10 10 11 11
3 3 4 5 5 3 1 2 1 1 3 1 1 1 0 6 6 6 5 4 4 4 4 5 5 5 5 5 7 8 9 10 10 9 11 9 6 6 6 8 9 8 9 9 10 10 10 10 9
4 3 6 3 3 2 1 2 2 2 2 0 1 2 4 6 7 7 5 5 4 3 3 4 4 4 4 4 4 4 5 5 6 5 6 5 5 5 6 9 10 10 9 9 10 10 9 7 4
3 4 2 1 1 1 1 1 1 3 1 3 3 4 6 6 6 5 5 4 3 3 3 3 3 4 4 3 3 3 3 3 5 6 5 4 4 4 4 4 5 6 7 5 5 5 4 4 3
2 1 1 1 1 1 1 1 1 1 2 1 3 6 7 7 6 5 4 3 3 3 3 2 3 3 4 3 3 3 3 3 3 3 4 3 3 3 3 3 3 3 2 3 3 3 4 4 4
1 1 0 1 2 2 2 1 1 1 2 2 5 6 6 6 4 3 3 3 3 2 2 2 3 3 3 4 3 3 3 3 3 3 3 3 3 3 3 2 3 3 2 3 3 3 3 4 4
2 1 0 1 1 1 1 0 1 3 1 3 5 5 4 4 3 2 2 2 2 2 2 2 3 3 3 3 3 3 2 3 3 3 3 3 3 2 2 2 2 3 2 2 2 2 3 3 3
2 1 2 1 1 1 2 2 2 2 2 3 2 2 3 2 2 2 2 2 2 2 1 2 3 3 3 3 3 3 2 2 3 2 3 3 3 2 2 2 2 2 2 2 3 3 2 3 3
2 1 1 2 1 0 2 5 3 0 3 2 1 1 2 1 1 1 1 2 2 2 2 2 2 3 3 3 3 3 2 2 2 2 2 3 3 3 2 2 2 2 2 2 2 2 2 2 2
1 1 3 2 1 1 2 4 3 1 2 1 1 1 1 0 1 1 1 2 2 2 2 2 3 3 3 3 3 3 2 2 2 2 2 2 2 3 2 2 1 2 2 2 2 2 2 2 2
3 2 3 3 1 1 2 4 5 1 1 2 1 1 1 1 1 0 1 2 2 2 3 3 3 3 3 2 2 2 2 2 2 1 1 1 2 2 2 2 2 2 2 2 2 2 2 1 1
3 3 3 3 1 1 3 5 6 3 1 2 2 2 2 2 1 1 2 3 3 3 3 3 3 3 2 2 1 1 0 0 1 1 1 1 1 2 2 2 2 2 2 2 2 2 2 2 1
2 2 2 2 0 1 2 6 5 3 2 3 3 2 2 1 1 2 3 3 2 2 2 2 2 2 2 1 1 1 1 1 1 1 1 1 1 1 1 2 1 1 2 2 2 2 1 1 1
3 5 4 3 2 1 2 5 3 2 1 0 0 1 1 1 1 1 1 1 2 1 1 1 2 2 2 2 2 2 2 2 2 2 1 1 0 0 1 1 1 1 1 1 1 1 2 1 0
5 3 3 2 1 2 1 5 5 2 2 2 1 1 1 1 0 1 1 1 0 0 0 1 1 2 2 2 2 2 1 0 1 1 1 1 0 0 0 1 1 1 1 1 1 1 1 2 1
3 1 2 2 3 1 1 3 8 0 3 4 3 2 2 1 0 0 1 1 0 0 0 1 1 2 2 2 2 1 1 0 1 1 1 1 1 1 0 1 1 1 1 1 2 2 1 1 2
2 3 3 3 3 3 4 4 8 3 4 3 2 1 1 1 1 1 1 1 2 2 2 1 1 1 2 1 1 1 1 1 1 1 1 1 1 1 1 1 1 1 1 2 2 2 2 2 1
2 4 3 3 1 6 2 4 9 4 1 1 2 2 1 1 1 2 2 2 2 2 2 2 1 1 1 1 1 0 0 0 1 1 2 2 1 1 2 1 1 1 2 2 1 2 2 3 3
2 5 6 5 5 4 1 7 7 1 0 1 1 1 2 2 1 2 1 1 1 1 2 1 1 2 2 1 1 1 1 1 1 2 2 2 2 2 2 2 2 2 2 2 2 2 3 2 3
3 2 3 4 1 2 5 6 7 0 1 1 1 1 1 1 1 2 2 2 1 1 1 1 1 2 2 2 2 1 1 1 2 2 2 2 2 2 2 2 2 2 2 2 2 2 3 3 3
2 4 4 4 3 4 5 5 5 3 3 1 1 2 2 2 2 2 2 2 2 2 2 2 1 1 2 2 2 2 2 2 2 2 2 3 3 2 2 2 2 2 2 3 3 3 3 4 4
2 2 3 3 3 4 4 7 4 5 4 4 3 2 2 2 2 2 2 2 2 2 2 2 2 2 2 2 2 2 2 2 2 2 3 3 3 2 3 3 3 3 3 3 3 4 4 5 5
2 4 5 4 4 3 3 9 2 3 2 2 3 2 2 2 1 1 1 2 3 3 2 2 2 2 3 2 2 2 2 2 2 3 3 3 3 3 3 3 3 4 4 4 4 5 5 5 6
Wind_Direction
346 10 64 59 61 61 228 238 212 198 201 183 124 127 141 148 157 187 327 34 67 97 2 132 92 94 92 90 86 82 82 85 89 95 105 107 104 100 97 95 95 95 94 92 90 90 89 87 85
352 32 57 65 106 179 245 229 209 208 179 117 71 78 98 116 37 78 350 338 81 90 51 67 93 98 95 92 90 86 82 81 83 89 96 105 104 101 96 93 92 93 94 92 90 90 90 89 88
47 49 84 89 147 191 215 217 206 193 106 114 97 61 107 137 107 170 297 111 93 80 50 63 93 100 98 95 92 89 84 82 80 81 86 94 100 100 96 93 91 91 92 92 92 92 92 90 90
79 53 59 97 210 217 206 211 178 152 85 83 125 100 73 25 338 237 93 113 100 76 54 60 90 98 98 95 91 90 88 85 82 81 81 86 90 95 97 93 91 92 95 96 95 93 93 90 90
63 84 88 204 232 239 235 234 165 151 166 121 131 131 111 6 28 88 100 105 103 84 61 62 82 89 94 94 91 89 88 86 83 82 81 81 82 85 90 94 93 91 93 96 96 96 94 92 91
68 81 128 218 232 249 252 206 152 147 152 127 133 133 191 29 82 100 102 95 91 87 68 67 80 80 82 87 90 89 87 86 83 80 79 79 79 79 81 90 91 91 91 95 96 97 96 94 92
115 121 177 195 211 243 232 166 159 171 182 208 157 135 200 59 110 109 102 92 83 79 67 58 64 72 73 76 80 80 79 81 81 78 75 71 72 76 74 78 89 89 91 92 95 97 95 93 91
127 120 166 192 193 231 214 153 154 161 187 106 131 150 201 186 129 109 95 86 80 72 66 59 55 61 67 72 74 72 70 69 69 68 66 62 58 63 65 62 75 85 89 88 90 93 95 91 86
90 101 200 202 191 213 173 140 58 66 108 76 58 98 86 125 124 113 101 90 85 69 59 61 61 59 61 67 73 71 69 65 63 60 61 59 45 41 48 53 59 69 79 83 85 88 90 87 81
101 180 215 207 186 175 149 146 153 103 78 50 47 51 102 125 135 136 139 141 127 107 74 63 68 70 66 68 67 65 66 61 57 54 50 52 50 45 48 48 52 53 59 70 75 79 78 78 69
144 191 206 250 250 147 131 79 87 134 209 219 201 169 137 136 141 150 156 152 147 133 100 74 74 80 80 79 77 70 70 63 56 55 50 54 54 48 46 44 39 39 45 46 56 61 56 63 70
151 265 177 285 357 64 131 128 79 118 231 258 159 147 147 151 160 166 160 149 130 121 117 97 85 85 82 81 81 80 78 75 68 58 56 59 58 52 47 48 39 37 38 42 41 58 59 61 65
178 246 331 352 39 63 84 93 153 280 318 63 106 125 148 159 162 155 140 129 121 129 130 117 103 99 94 89 84 80 82 81 74 63 58 65 72 66 56 46 45 38 38 54 49 59 70 68 64
174 152 277 309 305 350 119 295 73 282 29 91 113 137 150 158 154 134 131 139 146 150 147 133 119 110 102 95 95 90 84 87 82 69 55 62 72 77 68 57 48 38 31 44 60 58 81 75 75
122 101 333 290 218 221 121 322 248 261 110 112 123 134 131 127 116 150 166 162 168 155 129 137 129 110 111 106 102 94 89 88 85 76 62 62 66 76 79 72 55 36 28 44 62 52 69 82 78
71 83 277 285 155 222 160 252 282 55 118 140 155 153 151 130 112 113 100 115 113 111 119 127 124 117 114 110 108 104 95 92 86 78 68 64 63 66 74 76 63 44 43 49 70 64 63 74 78
48 214 233 289 30 80 156 241 291 34 117 173 211 197 176 151 34 27 77 107 110 114 115 107 109 117 112 101 94 93 92 87 90 83 74 64 67 68 69 68 57 57 61 51 67 55 67 86 86
208 215 224 232 299 95 192 247 284 292 165 225 246 228 199 211 252 31 79 96 96 95 95 92 83 82 94 95 84 77 78 72 78 83 80 82 81 81 79 69 49 52 66 58 66 65 49 65 100
162 181 232 243 263 186 225 252 273 278 236 261 256 232 234 250 315 70 78 84 82 74 77 77 75 73 86 91 102 106 95 66 66 79 81 87 80 91 95 86 67 56 68 59 83 82 69 41 52
170 206 251 283 5 190 258 270 262 243 216 221 227 236 242 280 28 60 72 78 87 91 85 80 78 75 86 81 106 120 117 97 52 44 57 68 82 101 108 112 111 85 75 61 71 76 94 44 21
207 204 217 229 341 26 336 296 249 253 169 131 189 227 260 219 218 86 88 92 86 90 99 98 72 67 63 63 72 65 56 45 34 11 353 348 31 130 119 127 123 124 126 140 144 125 121 153 325
231 215 198 188 124 292 64 287 272 238 290 278 268 302 297 299 185 114 107 110 117 176 94 86 84 73 70 86 90 106 111 106 266 278 293 327 339 236 144 143 145 155 155 167 185 149 144 148 177
214 142 150 156 159 300 275 235 281 328 264 264 261 273 302 308 190 168 213 220 174 81 90 98 85 67 62 72 90 99 78 322 332 359 335 318 321 330 334 150 158 178 185 194 192 171 173 170 178
140 78 66 66 82 266 225 197 274 237 233 262 273 294 319 339 348 344 353 26 37 42 46 53 77 54 53 63 72 69 72 13 9 341 303 291 299 310 316 285 204 208 205 207 204 192 187 192 184
81 93 33 353 322 250 185 203 252 256 237 228 266 301 332 7 13 5 14 24 29 33 33 30 40 21 24 47 40 341 306 252 245 266 258 273 272 270 258 262 240 233 233 228 215 201 203 205 198
194 151 164 205 234 276 239 231 253 267 322 318 323 357 27 25 15 2 356 13 14 17 18 16 15 3 7 7 338 323 328 307 286 284 277 263 259 253 250 236 236 242 241 232 219 220 223 211 214
146 180 156 135 141 267 262 280 295 172 351 5 356 13 356 350 352 350 356 3 3 1 356 358 7 2 352 339 337 318 309 301 291 292 295 291 290 279 256 243 239 239 237 236 226 221 226 223 226
113 144 112 140 186 255 279 264 253 256 250 261 286 293 295 330 343 353 359 360 1 353 351 0 3 345 340 342 325 314 306 290 288 289 290 287 289 291 271 253 245 245 236 229 226 239 232 226 232
108 106 123 143 174 189 257 266 231 221 219 214 237 258 279 302 310 329 344 350 357 4 4 7 358 350 340 332 325 324 312 309 298 284 280 285 290 286 278 261 251 248 243 233 228 235 235 232 236
167 173 156 172 222 198 215 266 273 213 224 210 240 265 289 299 309 327 344 357 359 356 357 357 347 335 324 321 323 318 319 322 308 293 288 286 284 282 276 270 256 251 247 239 233 239 240 236 238